[TLELIST] Archives

 

[TLELIST] Current TLEs

October 3rd 2024 PDT

HST 1 20580U 90037B 24276.43585777 .00017177 00000-0 76904-3 0 9993 2 20580 28.4698 345.5748 0003284 129.5775 230.5108 15.19839067693357 ISS (ZARYA) 1 25544U 98067A 24277.10775935 .00058167 00000-0 10146-2 0 9990 2 25544 51.6370 140.8376 0006781 55.2533 80.6283 15.50119673475289 CXO 1 25867U 99040B 24278.92956533 .00001036 00000-0 00000-0 0 9995 2 25867 43.5704 144.8881 8773836 302.2750 0.5451 0.37812895 14977 ...Continue Reading

[TLELIST] Current TLEs

October 3rd 2024 PDT

HST 1 20580U 90037B 24276.43585777 .00017177 00000-0 76904-3 0 9993 2 20580 28.4698 345.5748 0003284 129.5775 230.5108 15.19839067693357 ISS (ZARYA) 1 25544U 98067A 24277.10775935 .00058167 00000-0 10146-2 0 9990 2 25544 51.6370 140.8376 0006781 55.2533 80.6283 15.50119673475289 CXO 1 25867U 99040B 24278.92956533 .00001036 00000-0 00000-0 0 9995 2 25867 43.5704 144.8881 8773836 302.2750 0.5451 0.37812895 14977 ...Continue Reading

[TLELIST] Current TLEs

October 3rd 2024 PDT

HST 1 20580U 90037B 24276.43585777 .00017177 00000-0 76904-3 0 9993 2 20580 28.4698 345.5748 0003284 129.5775 230.5108 15.19839067693357 ISS (ZARYA) 1 25544U 98067A 24277.10775935 .00058167 00000-0 10146-2 0 9990 2 25544 51.6370 140.8376 0006781 55.2533 80.6283 15.50119673475289 CXO 1 25867U 99040B 24278.92956533 .00001036 00000-0 00000-0 0 9995 2 25867 43.5704 144.8881 8773836 302.2750 0.5451 0.37812895 14977 ...Continue Reading

[TLELIST] Current TLEs

October 2nd 2024 PDT

HST 1 20580U 90037B 24276.23886174 .00017021 00000-0 76208-3 0 9991 2 20580 28.4698 346.8989 0003286 127.8212 232.2679 15.19833761693589 ISS (ZARYA) 1 25544U 98067A 24276.37395833 .00047432 00000-0 83119-3 0 9997 2 25544 51.6382 144.4720 0007356 54.4438 303.9262 15.50074020475160 CXO 1 25867U 99040B 24276.28510669 .00000996 00000-0 00000-0 0 9992 2 25867 43.5327 145.0351 8778820 302.1951 0.5214 0.37812497 14967 ...Continue Reading

[TLELIST] Current TLEs

October 1st 2024 PDT

HST 1 20580U 90037B 24274.59720062 .00014727 00000-0 65943-3 0 9995 2 20580 28.4700 357.9327 0003277 112.3484 247.7456 15.19779408693336 ISS (ZARYA) 1 25544U 98067A 24275.11342934 .00057968 00000-0 10150-2 0 9991 2 25544 51.6379 150.7192 0007141 48.4365 111.4314 15.50010946474978 CXO 1 25867U 99040B 24276.28510669 .00000996 00000-0 00000-0 0 9992 2 25867 43.5327 145.0351 8778820 302.1951 0.5214 0.37812497 14967 ...Continue Reading

[TLELIST] Current TLEs

October 1st 2024 PDT

HST 1 20580U 90037B 24274.59720062 .00014727 00000-0 65943-3 0 9995 2 20580 28.4700 357.9327 0003277 112.3484 247.7456 15.19779408693336 ISS (ZARYA) 1 25544U 98067A 24275.11342934 .00057968 00000-0 10150-2 0 9991 2 25544 51.6379 150.7192 0007141 48.4365 111.4314 15.50010946474978 CXO 1 25867U 99040B 24276.28510669 .00000996 00000-0 00000-0 0 9992 2 25867 43.5327 145.0351 8778820 302.1951 0.5214 0.37812497 14967 ...Continue Reading

[TLELIST] Current TLEs

September 30th 2024 PDT

HST 1 20580U 90037B 24273.61217697 .00014161 00000-0 63432-3 0 9995 2 20580 28.4700 4.5527 0003289 103.1525 256.9435 15.19749699692922 ISS (ZARYA) 1 25544U 98067A 24274.40627631 .00013723 00000-0 24831-3 0 9995 2 25544 51.6392 154.2186 0007232 45.9401 125.4774 15.49946976474861 CXO 1 25867U 99040B 24276.28510669 .00000996 00000-0 00000-0 0 9992 2 25867 43.5327 145.0351 8778820 302.1951 0.5214 0.37812497 14967 ...Continue Reading

[TLELIST] Current TLEs

September 30th 2024 PDT

HST 1 20580U 90037B 24273.61217697 .00014161 00000-0 63432-3 0 9995 2 20580 28.4700 4.5527 0003289 103.1525 256.9435 15.19749699692922 ISS (ZARYA) 1 25544U 98067A 24274.40627631 .00013723 00000-0 24831-3 0 9995 2 25544 51.6392 154.2186 0007232 45.9401 125.4774 15.49946976474861 CXO 1 25867U 99040B 24276.28510669 .00000996 00000-0 00000-0 0 9992 2 25867 43.5327 145.0351 8778820 302.1951 0.5214 0.37812497 14967 ...Continue Reading

[TLELIST] Current TLEs

September 29th 2024 PDT

HST 1 20580U 90037B 24272.95548354 .00013397 00000-0 59995-3 0 9997 2 20580 28.4699 8.9658 0003303 97.0171 263.0797 15.19732270692823 ISS (ZARYA) 1 25544U 98067A 24273.40365741 -.00074148 00000-0 -13101-2 0 9992 2 25544 51.6395 159.1861 0006820 41.1038 292.2714 15.49830582474709 CXO 1 25867U 99040B 24276.28436472 .00000996 00000-0 00000+0 0 9990 2 25867 43.5327 145.0351 8778814 302.1950 0.4201 0.37813254 26127 ...Continue Reading

[TLELIST] Current TLEs

September 29th 2024 PDT

HST 1 20580U 90037B 24272.95548354 .00013397 00000-0 59995-3 0 9997 2 20580 28.4699 8.9658 0003303 97.0171 263.0797 15.19732270692823 ISS (ZARYA) 1 25544U 98067A 24273.40365741 -.00074148 00000-0 -13101-2 0 9992 2 25544 51.6395 159.1861 0006820 41.1038 292.2714 15.49830582474709 CXO 1 25867U 99040B 24276.28436472 .00000996 00000-0 00000+0 0 9990 2 25867 43.5327 145.0351 8778814 302.1950 0.4201 0.37813254 26127 ...Continue Reading
  • This mailing list is a public mailing list - anyone may join or leave, at any time.
  • This mailing list is announce-only.

International Space Station (ISS) / Hubble Space Telescope (HST) / Chandra X-Ray Observatory Orbital Data via EMAIL

Privacy Policy:

Private list